When you browse on this site, cookies collect data to enhance your experience and personalize the content and advertising you see.
Visit our Privacy Policy to learn more. By continuing to use the site, you agree to this use of cookies and data.
  • In Latvia
  • List of Countries
  • For 7 days
  • Water Temperature
  • Weather Map
  • Weather Widgets
  • user-avatar
    Login

    Hourly Weather Fargo

    Today, 16 October, Wednesday

    Time Temperature Precipitation Wind Pressure Humidity
    00:00 +1°C° 0 mm 4 mps 741 mmHg 90%
    01:00 0°C° 0 mm 4 mps 741 mmHg 90%
    02:00 +1°C° 0 mm 3 mps 741 mmHg 91%
    03:00 +1°C° 0 mm 3 mps 740 mmHg 92%
    04:00 +1°C° 0 mm 3 mps 740 mmHg 92%
    05:00 +2°C° 0 mm 2 mps 741 mmHg 92%
    06:00 +3°C° 0 mm 2 mps 741 mmHg 92%
    07:00 +3°C° 0 mm 2 mps 741 mmHg 90%
    08:00 +4°C° 0 mm 1 mps 740 mmHg 88%
    09:00 +5°C° 0 mm 1 mps 740 mmHg 86%
    10:00 +6°C° 0 mm 1 mps 740 mmHg 81%
    11:00 +5°C° 0 mm 2 mps 739 mmHg 76%
    12:00 +6°C° 0 mm 2 mps 739 mmHg 72%
    13:00 +7°C° 0 mm 2 mps 738 mmHg 70%
    14:00 +7°C° 0 mm 3 mps 738 mmHg 69%
    15:00 +7°C° 0 mm 3 mps 737 mmHg 67%
    16:00 +5°C° 0 mm 3 mps 736 mmHg 71%
    17:00 +5°C° 0 mm 3 mps 736 mmHg 74%
    18:00 +5°C° 0 mm 2 mps 735 mmHg 77%
    19:00 +3°C° 0 mm 3 mps 735 mmHg 80%
    20:00 +3°C° 0 mm 3 mps 735 mmHg 82%
    21:00 +3°C° 0 mm 3 mps 735 mmHg 84%
    22:00 +3°C° 0 mm 4 mps 735 mmHg 83%
    23:00 +3°C° 0 mm 4 mps 734 mmHg 83%

    Tomorrow, 17 October, Thursday

    Time Temperature Precipitation Wind Pressure Humidity
    00:00 +3°C° 0 mm 4 mps 734 mmHg 83%
    01:00 +1°C° 0 mm 4 mps 734 mmHg 84%
    02:00 +1°C° 0 mm 4 mps 733 mmHg 84%
    03:00 +1°C° 0 mm 4 mps 733 mmHg 85%
    04:00 +1°C° 0 mm 4 mps 733 mmHg 86%
    05:00 +1°C° 0 mm 4 mps 733 mmHg 87%
    06:00 +1°C° 0 mm 4 mps 733 mmHg 88%
    07:00 +3°C° 0 mm 4 mps 733 mmHg 84%
    08:00 +4°C° 0 mm 4 mps 733 mmHg 80%
    09:00 +5°C° 0 mm 4 mps 732 mmHg 77%
    10:00 +7°C° 0 mm 5 mps 732 mmHg 72%
    11:00 +8°C° 0 mm 5 mps 732 mmHg 68%
    12:00 +10°C° 0 mm 5 mps 732 mmHg 63%
    13:00 +12°C° 0 mm 5 mps 731 mmHg 61%
    14:00 +13°C° 0 mm 5 mps 730 mmHg 60%
    15:00 +14°C° 0 mm 5 mps 730 mmHg 58%
    16:00 +13°C° 0 mm 5 mps 729 mmHg 63%
    17:00 +10°C° 0 mm 5 mps 729 mmHg 69%
    18:00 +9°C° 0 mm 5 mps 729 mmHg 74%
    19:00 +9°C° 0 mm 5 mps 728 mmHg 74%
    20:00 +9°C° 0 mm 6 mps 728 mmHg 74%
    21:00 +9°C° 0 mm 6 mps 728 mmHg 74%
    22:00 +9°C° 0 mm 6 mps 727 mmHg 75%
    23:00 +9°C° 0 mm 7 mps 727 mmHg 76%

    Day after tomorrow, 18 October, Friday

    Time Temperature Precipitation Wind Pressure Humidity
    00:00 +9°C° 0 mm 7 mps 726 mmHg 77%
    01:00 +9°C° 0 mm 7 mps 725 mmHg 79%
    02:00 +9°C° 0 mm 7 mps 725 mmHg 82%
    03:00 +8°C° 0 mm 7 mps 725 mmHg 85%
    04:00 +8°C° 0 mm 7 mps 724 mmHg 87%
    05:00 +8°C° 0 mm 7 mps 724 mmHg 89%
    06:00 +8°C° 0 mm 7 mps 723 mmHg 91%
    07:00 +9°C° 0 mm 7 mps 723 mmHg 88%
    08:00 +9°C° 0 mm 8 mps 722 mmHg 86%
    09:00 +10°C° 0 mm 8 mps 722 mmHg 83%
    10:00 +11°C° 0 mm 8 mps 722 mmHg 78%
    11:00 +14°C° 0 mm 7 mps 721 mmHg 73%
    12:00 +15°C° 0 mm 7 mps 721 mmHg 67%
    13:00 +15°C° 0 mm 6 mps 721 mmHg 66%
    14:00 +16°C° 0 mm 5 mps 721 mmHg 65%
    15:00 +17°C° 0 mm 4 mps 721 mmHg 63%
    16:00 +15°C° 0 mm 4 mps 721 mmHg 66%
    17:00 +14°C° 0 mm 5 mps 722 mmHg 69%
    18:00 +12°C° 0 mm 5 mps 722 mmHg 72%
    19:00 +12°C° 0 mm 5 mps 723 mmHg 74%
    20:00 +11°C° 0 mm 4 mps 723 mmHg 75%
    21:00 +10°C° 0 mm 4 mps 724 mmHg 77%
    22:00 +10°C° 0 mm 4 mps 724 mmHg 74%
    23:00 +8°C° 0 mm 4 mps 725 mmHg 71%

    19 October, Saturday

    Time Temperature Precipitation Wind Pressure Humidity
    00:00 +8°C° 0 mm 4 mps 725 mmHg 68%
    01:00 +8°C° 0 mm 4 mps 725 mmHg 67%
    02:00 +7°C° 0 mm 4 mps 725 mmHg 66%
    03:00 +7°C° 0 mm 4 mps 726 mmHg 65%
    04:00 +7°C° 0 mm 4 mps 726 mmHg 64%
    05:00 +7°C° 0 mm 4 mps 726 mmHg 62%
    06:00 +6°C° 0 mm 4 mps 726 mmHg 61%
    07:00 +7°C° 0 mm 6 mps 726 mmHg 57%
    08:00 +8°C° 0 mm 7 mps 726 mmHg 53%
    09:00 +9°C° 0 mm 8 mps 727 mmHg 49%
    10:00 +10°C° 0 mm 8 mps 727 mmHg 47%
    11:00 +11°C° 0 mm 8 mps 727 mmHg 46%
    12:00 +12°C° 0 mm 8 mps 727 mmHg 45%
    13:00 +12°C° 0 mm 8 mps 727 mmHg 46%
    14:00 +12°C° 0 mm 7 mps 727 mmHg 47%
    15:00 +13°C° 0 mm 6 mps 727 mmHg 48%
    16:00 +12°C° 0 mm 5 mps 727 mmHg 53%
    17:00 +11°C° 0 mm 4 mps 728 mmHg 58%
    18:00 +10°C° 0 mm 2 mps 728 mmHg 64%
    19:00 +9°C° 0 mm 2 mps 728 mmHg 66%
    20:00 +8°C° 0 mm 2 mps 729 mmHg 68%
    21:00 +8°C° 0 mm 2 mps 729 mmHg 70%
    22:00 +8°C° 0 mm 2 mps 729 mmHg 69%
    23:00 +7°C° 0 mm 2 mps 729 mmHg 69%

    20 October, Sunday

    Time Temperature Precipitation Wind Pressure Humidity
    00:00 +7°C° 0 mm 2 mps 729 mmHg 69%
    01:00 +7°C° 0 mm 2 mps 729 mmHg 67%
    02:00 +7°C° 0 mm 2 mps 729 mmHg 65%
    03:00 +7°C° 0 mm 2 mps 729 mmHg 62%
    04:00 +8°C° 0 mm 2 mps 729 mmHg 60%
    05:00 +8°C° 0 mm 2 mps 729 mmHg 58%
    06:00 +8°C° 0 mm 2 mps 729 mmHg 56%
    07:00 +9°C° 0 mm 3 mps 729 mmHg 55%
    08:00 +8°C° 0 mm 4 mps 729 mmHg 53%
    09:00 +9°C° 0 mm 5 mps 729 mmHg 52%
    10:00 +10°C° 0 mm 5 mps 729 mmHg 51%
    11:00 +12°C° 0 mm 5 mps 729 mmHg 50%
    12:00 +13°C° 0 mm 5 mps 728 mmHg 49%
    13:00 +12°C° 0.1 mm 5 mps 727 mmHg 55%
    14:00 +12°C° 0.1 mm 5 mps 727 mmHg 60%
    15:00 +12°C° 0.1 mm 5 mps 726 mmHg 66%
    16:00 +10°C° 0.3 mm 6 mps 725 mmHg 67%
    17:00 +10°C° 0.3 mm 7 mps 724 mmHg 69%
    18:00 +10°C° 0.3 mm 8 mps 723 mmHg 70%
    19:00 +10°C° 2.5 mm 9 mps 722 mmHg 75%
    20:00 +8°C° 2.5 mm 10 mps 721 mmHg 81%
    21:00 +8°C° 2.5 mm 11 mps 720 mmHg 86%
    22:00 +7°C° 2.4 mm 10 mps 719 mmHg 88%
    23:00 +7°C° 2.4 mm 8 mps 718 mmHg 89%

    21 October, Monday

    Time Temperature Precipitation Wind Pressure Humidity
    00:00 +8°C° 2.4 mm 7 mps 717 mmHg 91%
    01:00 +8°C° 2.1 mm 7 mps 717 mmHg 91%
    02:00 +8°C° 2.1 mm 6 mps 717 mmHg 92%
    03:00 +7°C° 2.1 mm 6 mps 717 mmHg 92%
    04:00 +6°C° 0.1 mm 7 mps 717 mmHg 91%
    05:00 +6°C° 0.1 mm 9 mps 718 mmHg 89%
    06:00 +5°C° 0.1 mm 10 mps 718 mmHg 88%
    07:00 +5°C° 0.2 mm 10 mps 719 mmHg 87%
    08:00 +4°C° 0.2 mm 11 mps 719 mmHg 87%
    09:00 +3°C° 0.2 mm 11 mps 720 mmHg 87%
    10:00 +3°C° 0.5 mm 12 mps 720 mmHg 87%
    11:00 +3°C° 0.5 mm 12 mps 721 mmHg 87%
    12:00 +3°C° 0.5 mm 13 mps 722 mmHg 87%
    13:00 +3°C° 0.3 mm 13 mps 723 mmHg 82%
    14:00 +3°C° 0.3 mm 12 mps 724 mmHg 76%
    15:00 +4°C° 0.3 mm 12 mps 725 mmHg 71%
    16:00 +3°C° 0 mm 11 mps 726 mmHg 70%
    17:00 +3°C° 0 mm 10 mps 727 mmHg 69%
    18:00 +2°C° 0 mm 9 mps 728 mmHg 69%
    19:00 +1°C° 0 mm 9 mps 728 mmHg 69%
    20:00 +1°C° 0 mm 8 mps 729 mmHg 70%
    21:00 0°C° 0 mm 8 mps 730 mmHg 71%
    22:00 -1°C° 0 mm 7 mps 731 mmHg 72%
    23:00 -1°C° 0 mm 6 mps 731 mmHg 73%
    Show more